Flag for Germany Weather past 2 weeks in Schorndorf, Baden-Württemberg, Germany

Now
33 °F

Snow. Low clouds.


Feels Like: 33 °F
Forecast: 22 / 35 °F
Wind: 2 mph from Southwest

Location: Stuttgart-Echterdingen

Current Time: Jan 31, 2015 at 7:37:42 PM

Latest Report: Jan 31, 2015 at 7:00 PM


Visibility: 1 mi

Pressure: 29.15 "Hg

Humidity: 95%

Dew point: 32 °F

Location of SchorndorfLocation

Historic Weather in Schorndorf — Graph

°F

Schorndorf temperature yesterday

Maximum temperature yesterday: 37 °F (at 1:00 AM)
Minimum temperature yesterday: 31 °F (at 9:00 AM)
Average temperature yesterday: 34 °F

Past Weeks' High & Low Weather Summary

 TemperatureHumidityPressure
High44 °F (Jan 16, 6:00 PM)99% (Jan 18, 7:00 AM)30.47 "Hg (Jan 18, 7:00 AM)
Low27 °F (Jan 19, 6:00 AM)65% (Jan 31, 4:00 PM)28.76 "Hg (Jan 30, 2:00 AM)
Average34 °F87%29.91 "Hg
* Reported Jan 16 6:00 PM — Jan 31 6:00 PM, Schorndorf, Weather by CustomWeather, © 2014

Note: Actual official high and low records may vary slightly from our data, if they occured in-between our weather recording intervals... More about our weather records

Advertising

Schorndorf weather history for previous 24 hours

 ConditionsComfort  
Time TempWeatherWind HumidityBarometerVisibility
6:00 PM
Jan 31
34 °FSnow. Overcast.2 mph89%29.15 "Hg2 mi
5:00 PM37 °FOvercast.2 mph67%29.12 "Hg37 mi
4:00 PM37 °FOvercast.2 mph65%29.09 "Hg37 mi
3:00 PM37 °FOvercast.2 mph67%29.09 "Hg37 mi
2:00 PM36 °FOvercast.5 mph67%29.09 "Hg37 mi
1:00 PM36 °FOvercast.5 mph68%29.09 "Hg37 mi
12:00 PM35 °FOvercast.5 mph70%29.12 "Hg37 mi
11:00 AM34 °FOvercast.5 mph74%29.09 "Hg43 mi
9:00 AM32 °FPartly sunny.2 mph83%29.09 "Hg37 mi
8:00 AM31 °FOvercast.2 mph86%29.06 "Hg37 mi
7:00 AM31 °FOvercast.1 mph87%29.06 "Hg25 mi
6:00 AM31 °FOvercast.2 mph89%29.06 "Hg19 mi
5:00 AM32 °FOvercast.2 mph87%29.03 "Hg19 mi
3:00 AM32 °FOvercast.1 mph88%29.03 "Hg19 mi
2:00 AM31 °FOvercast.1 mph94%29.03 "Hg19 mi
1:00 AM31 °FPassing clouds.1 mph94%29.00 "Hg19 mi
12:00 AM31 °FOvercast.1 mph94%29.00 "Hg12 mi
11:00 PM
Jan 30
31 °FLight snow. Overcast.1 mph96%28.97 "Hg9 mi
9:00 PM31 °FSnow. Low clouds.3 mph96%28.94 "Hg1 mi
8:00 PM33 °FLight snow. Low clouds.3 mph90%28.91 "Hg4 mi
7:00 PM33 °FLight snow. Low clouds.2 mph91%28.91 "Hg3 mi
Weather by CustomWeather, © 2014

See weather overviewHow to use our weather pages